This demonstration page uses our WeatherBlox Daily Observations layout. Learn more.

Left ArrowRight Arrow

39.95238, -75.16362

Hourly Observations for May 27, 2016

Temp ( °F °C ) Dew Point ( °F °C ) Humidity (%) Winds ( mph kmh ) Pressure ( in mb ) Visibility ( mi km ) Precip ( " mm )
12:54 am 00:54 Mostly Cloudy 75 23.9 61 16.1 62 62 SSW 6 9 30.06 1018 10 16 0.00 0.00
1:54 am 01:54 Mostly Cloudy 73 22.8 61 16.1 66 66 SW 3 6 30.06 1018 10 16 0.00 0.00
2:54 am 02:54 Mostly Cloudy 71 21.7 61 16.1 71 71 S 5 7 30.06 1018 10 16 0.00 0.00
3:54 am 03:54 Partly Cloudy 71 21.7 61 16.1 71 71 S 6 9 30.06 1018 10 16 0.00 0.00
4:54 am 04:54 Partly Cloudy 70 21.1 62 16.7 76 76 SSW 3 6 30.07 1018 10 16 0.00 0.00
5:54 am 05:54 Partly Cloudy 70 21.1 62 16.7 76 76 S 5 7 30.06 1018 10 16 0.00 0.00
6:54 am 06:54 Partly Cloudy 71 21.7 63 17.2 76 76 S 5 7 30.07 1018 10 16 0.00 0.00
7:54 am 07:54 Partly Cloudy 73 22.8 64 17.8 74 74 SW 9 15 30.08 1019 10 16 0.00 0.00
8:54 am 08:54 Partly Cloudy 77 25 65 18.3 66 66 WSW 9 15 30.07 1018 10 16 0.00 0.00
9:54 am 09:54 Partly Cloudy 79 26.1 65 18.3 62 62 SW 8 13 30.06 1018 10 16 0.00 0.00
10:54 am 10:54 Partly Cloudy 82 27.8 65 18.3 56 56 WSW 12 19 30.06 1018 10 16 0.00 0.00
11:54 am 11:54 Partly Cloudy 83 28.3 66 18.9 57 57 WSW 8 13 30.06 1018 10 16 0.00 0.00
12:54 pm 12:54 Partly Cloudy 86 30 66 18.9 51 51 SSW 9 15 30.06 1018 10 16 0.00 0.00
1:54 pm 13:54 Partly Cloudy 88 31.1 65 18.3 46 46 SW 12 19 30.05 1018 10 16 0.00 0.00
2:54 pm 14:54 Partly Cloudy 89 31.7 64 17.8 43 43 SSW 16 26 30.03 1017 10 16 0.00 0.00
3:54 pm 15:54 Partly Cloudy 89 31.7 64 17.8 43 43 SW 13 20 30.03 1017 10 16 0.00 0.00
4:54 pm 16:54 Partly Cloudy 89 31.7 63 17.2 42 42 SW 13 20 30.03 1017 10 16 0.00 0.00
5:54 pm 17:54 Mostly Cloudy 89 31.7 64 17.8 43 43 SW 15 24 30.01 1016 10 16 0.00 0.00
6:54 pm 18:54 Mostly Cloudy 87 30.6 64 17.8 46 46 SW 9 15 30.02 1017 10 16 0.00 0.00
7:54 pm 19:54 Mostly Cloudy 83 28.3 66 18.9 57 57 S 10 17 30.03 1017 10 16 0.00 0.00
8:54 pm 20:54 Mostly Cloudy 80 26.7 65 18.3 60 60 S 9 15 30.05 1018 10 16 0.00 0.00
9:54 pm 21:54 Mostly Cloudy 78 25.6 65 18.3 64 64 S 8 13 30.09 1019 10 16 0.00 0.00
10:54 pm 22:54 Partly Cloudy 75 23.9 64 17.8 69 69 S 7 11 30.08 1019 10 16 0.00 0.00
11:54 pm 23:54 Partly Cloudy 74 23.3 62 16.7 67 67 SSW 8 13 30.10 1019 10 16 0.00 0.00

Powered by AerisWeather